Regional Weather Roundup
Issued by NWS

Home | Current Version | Previous Version | Graphics & Text | Print | Product List | Glossary On
Versions: 1 2 3 4 5 6 7 8 9 10 11 12 13 14 15 16 17 18 19 20 21 22 23 24 25 26 27 28 29 30 31 32 33 34 35 36 37 38 39 40 41 42 43 44 45 46 47 48 49 50
000
ASUS45 KCYS 261310
RWRWY

WYOMING REGIONAL WEATHER ROUNDUP
NATIONAL WEATHER SERVICE CHEYENNE WY
600 AM MST FRI DEC 26 2014

NOTE:  "FAIR" INDICATES FEW OR NO CLOUDS BELOW 12,000 FEET
WITH NO SIGNIFICANT WEATHER AND/OR OBSTRUCTIONS TO VISIBILITY.

WYZ001-261400-
YELLOWSTONE NATIONAL PARK

CITY           SKY/WX    TMP DP  RH WIND       PRES   REMARKS
LK YELLOWSTONE   N/A     -3  -6  87 CALM      29.86R
W YELLOWSTONE  NOT AVBL

$$
WYZ002>013-054>058-071-098>099-261400-
NORTHERN WYOMING

CITY           SKY/WX    TMP DP  RH WIND       PRES   REMARKS
JACKSON        FAIR       3   1  92 N13       29.87R WCI -14
CODY           CLOUDY    16  12  86 CALM      29.95R
GREYBULL       LGT SNOW  14  13  95 S3        30.01R FOG
WORLAND        LGT SNOW  13  11  92 S5        29.99R FOG     WCI   5
SHERIDAN       CLOUDY    19  14  81 SW3       30.02R
BUFFALO        CLOUDY    16  13  88 CALM      29.97R
GILLETTE       CLOUDY    17  13  84 NE3       29.99R
HULETT           N/A    N/A N/A N/A MISG        N/A
NEWCASTLE      CLOUDY    18  12  79 N7        30.00R WCI   8

$$
WYZ014>020-022>026-101>103-261400-
CENTRAL WYOMING

CITY           SKY/WX    TMP DP  RH WIND       PRES   REMARKS
BIG PINEY      MOCLDY     3   1  91 CALM      29.82R
PINEDALE       FAIR       3   3 100 CALM      29.81R
DUBOIS         NOT AVBL
LANDER         LGT SNOW  15  12  88 W5        29.90S FOG     WCI   8
RIVERTON       FLURRIES  15  11  83 CALM      29.92R
CASPER         LGT SNOW  13  10  88 E3        29.93S FOG
DOUGLAS        LGT SNOW  15  12  88 NW5       29.97R FOG     WCI   8

$$
WYZ021-027>030-104>119-261400-
SOUTHERN WYOMING

CITY           SKY/WX    TMP DP  RH WIND       PRES   REMARKS
EVANSTON       CLOUDY    14   9  80 NE6       29.81R WCI   5
FORT BRIDGER   LGT SNOW  13  11  94 SE5       29.85R WCI   5
ROCK SPRINGS   LGT SNOW  12   8  84 NE13      29.82R FOG     WCI  -3
DIXON          CLOUDY    18  15  86 SW6       29.76R WCI  10
RAWLINS        LGT SNOW  12   8  84 NE14G23   29.80S FOG     WCI  -3
SARATOGA       LGT SNOW  12  10  92 W6        29.76R WCI   3
LARAMIE        CLOUDY     3  -1  83 W6        29.77R WCI  -8
CHEYENNE       FLURRIES  11   8  88 N5        29.85S WCI   3
TORRINGTON     NOT AVBL
PINE BLUFFS    LGT SNOW  14  12  92 N7        29.92R WCI   4

$$


USA.gov is the U.S. government's official web portal to all federal, state and local government web resources and services.